Location: Unspecified
(34.4950°S, 58.5160°W)
Time: 13:52:08
(UTC+00:00)

BlueWalker 3 - Pass Details

Date: 15 February 2026
Orbit: 451 x 458 km, 53.2° (Epoch: 4 March)

Event Time Altitude Azimuth Distance (km) Brightness Sun altitude
Rises 00:17:58 0° 327° (NNW) 2,454 5.5 -17.8°
Reaches altitude 10° 00:20:07 10° 332° (NNW) 1,590 4.4 -18.2°
Enters shadow 00:22:39 39° 0° (N) 705 2.4 -18.7°
